This is the latest recevied weather packets stored in our database for station/object CT8ACA-6. If no packets are shown the sender has not sent any weather packets the latest 10 day(s).
| Time | Temp. | Humidity | Pressure | Rain* | Wind** | Luminosity | Snow |
|---|---|---|---|---|---|---|---|
| 1787749617 | 25° C | 67% | 1025.8 hPa | 0 mm | - | - | - |
| 1787749017 | 25° C | 68% | 1025.8 hPa | 0 mm | - | - | - |
| 1787748416 | 25.56° C | 67% | 1025.4 hPa | 0 mm | - | - | - |
| 1787747816 | 26.11° C | 69% | 1025.4 hPa | 0 mm | - | - | - |
| 1787747217 | 26.11° C | 68% | 1024.8 hPa | 0 mm | - | - | - |
| 1787746616 | 26.67° C | 70% | 1024.8 hPa | 0 mm | - | - | - |
| 1787746016 | 26.67° C | 71% | 1024.3 hPa | 0 mm | - | - | - |
| 1787745416 | 26.11° C | 71% | 1024.3 hPa | 0 mm | - | - | - |
| 1787744815 | 25° C | 69% | 1023.5 hPa | 0 mm | - | - | - |
| 1787744216 | 25° C | 71% | 1023.5 hPa | 0 mm | - | - | - |
| 1787743616 | 25° C | 70% | 1023.2 hPa | 0 mm | - | - | - |
| 1787743015 | 23.89° C | 69% | 1023.2 hPa | 0 mm | - | - | - |
| 1787742415 | 23.89° C | 72% | 1022.2 hPa | 0 mm | - | - | - |
| 1787741816 | 23.89° C | 70% | 1022.2 hPa | 0 mm | - | - | - |
| 1787741215 | 23.33° C | 70% | 1021.7 hPa | 0 mm | - | - | - |
| 1787740615 | 23.33° C | 72% | 1021.7 hPa | 0 mm | - | - | - |
| 1787740015 | 23.33° C | 72% | 1020.2 hPa | 0 mm | - | - | - |
| 1787739414 | 22.78° C | 73% | 1020.2 hPa | 0 mm | - | - | - |
| 1787738815 | 22.78° C | 74% | 1019 hPa | 0 mm | - | - | - |
| 1787738215 | 22.78° C | 74% | 1019 hPa | 0 mm | - | - | - |
| 1787737614 | 22.78° C | 76% | 1018 hPa | 0 mm | - | - | - |
| 1787737014 | 22.22° C | 76% | 1018 hPa | 0 mm | - | - | - |
| 1787736415 | 22.22° C | 76% | 1016.5 hPa | 0 mm | - | - | - |
| 1787735814 | 21.67° C | 77% | 1016.5 hPa | 0 mm | - | - | - |
| 1787735214 | 21.11° C | 77% | 1015.7 hPa | 0 mm | - | - | - |
* Rain latest hour (hover to see other rain measurements)
** Current wind speed in m/s (hover to see current wind gust speed)